CDT,Max TemperatureF,Mean TemperatureF,Min TemperatureF,Max Dew PointF,MeanDew PointF,Min DewpointF,Max Humidity, Mean Humidity, Min Humidity, Max Sea Level PressureIn, Mean Sea Level PressureIn, Min Sea Level PressureIn, Max VisibilityMiles, Mean VisibilityMiles, Min VisibilityMiles, Max Wind SpeedMPH, Mean Wind SpeedMPH, Max Gust SpeedMPH,PrecipitationIn, CloudCover, Events, WindDirDegrees
2013-10-1,73,68,62,72,67,63,100,95,78,30.09,30.05,30.01,10,8,1,10,3,,0.07,1,,179
2013-10-2,80,73,66,72,68,64,100,90,65,30.12,30.08,30.05,10,9,3,13,5,18,0.01,1,,200
2013-10-3,82,75,68,68,66,63,100,81,51,30.09,30.04,29.98,10,10,6,10,5,16,0.00,3,,179
2013-10-4,82,74,66,72,68,64,100,83,62,30.09,30.04,30.00,10,10,5,10,6,17,0.00,1,,183
2013-10-5,82,76,69,73,70,68,100,85,62,30.04,29.98,29.87,10,10,5,21,6,28,0.08,6,,197
2013-10-6,68,59,48,66,53,45,100,79,46,29.98,29.90,29.84,10,9,1,21,8,26,1.57,5,,279
2013-10-7,64,55,46,50,46,43,94,77,49,30.15,30.05,29.94,10,10,9,14,5,17,0.00,0,,350
2013-10-8,68,57,46,48,46,41,100,72,37,30.21,30.15,30.12,10,10,9,17,7,23,0.00,0,,65
2013-10-9,75,62,48,63,56,48,100,85,61,30.18,30.13,30.10,10,9,3,9,3,,0.00,4,,126
2013-10-10,78,68,57,64,61,57,100,87,51,30.17,30.11,30.03,10,7,0,7,1,,0.00,5,,301
2013-10-11,80,68,55,63,58,55,100,81,42,30.09,30.04,30.00,10,7,0,8,2,,0.00,1,,182
2013-10-12,75,66,57,66,61,55,100,87,65,30.15,30.07,30.02,10,8,2,8,5,,0.00,3,,187
2013-10-13,75,65,55,64,56,46,100,76,50,30.29,30.24,30.15,10,5,0,13,7,18,0.00,2,,13
2013-10-14,73,62,50,61,54,45,94,75,57,30.28,30.20,30.11,10,10,7,9,6,,0.00,1,,64
2013-10-15,69,64,60,66,63,59,100,92,78,30.10,30.02,29.96,10,8,3,16,6,21,0.10,4,,174
2013-10-16,64,57,50,64,56,50,100,93,77,30.03,29.99,29.95,10,9,1,14,5,17,0.15,7,,344
2013-10-17,62,54,46,52,47,45,100,83,55,30.03,29.99,29.95,10,9,4,12,4,16,0.03,5,,319
2013-10-18,68,56,44,50,47,43,100,77,46,30.08,30.02,29.96,10,9,2,9,4,21,0.00,2,,222
2013-10-19,55,47,39,52,44,37,100,83,51,30.07,30.00,29.90,10,9,2,15,6,26,0.13,5,,270
2013-10-20,62,50,39,45,40,37,100,72,42,30.11,30.05,30.01,10,10,10,13,6,17,0.00,0,,198
2013-10-21,68,56,44,52,44,37,100,69,46,30.06,30.02,29.97,10,10,5,14,7,22,0.06,3,,233
2013-10-22,60,50,39,50,39,32,100,68,38,30.08,29.99,29.87,10,8,1,12,6,,0.00,4,,257
2013-10-23,53,47,41,45,35,32,93,71,44,30.13,30.06,29.91,10,10,10,17,8,25,0.00,5,,317
2013-10-24,50,41,32,41,34,27,93,69,43,30.39,30.23,30.12,10,10,10,17,4,24,0.00,5,,357
2013-10-25,50,39,28,30,27,21,93,68,34,30.53,30.43,30.32,10,10,7,9,4,17,0.00,0,,335
2013-10-26,59,46,32,43,34,27,80,63,47,30.31,30.18,30.07,10,10,8,16,7,24,0.00,5,,211
2013-10-27,62,52,41,52,45,39,94,79,55,30.13,30.08,30.04,10,10,8,6,3,,0.00,7,,45
2013-10-28,69,60,51,55,53,50,100,86,49,30.26,30.17,30.07,10,8,2,9,2,,0.00,7,,188
2013-10-29,66,56,46,63,56,46,100,92,82,30.28,30.20,30.12,10,7,0,9,4,,0.00,5,,140
2013-10-30,75,70,64,63,60,57,88,77,65,30.17,30.10,30.00,10,10,10,16,9,23,0.00,4,,202
2013-10-31,68,62,57,66,61,55,100,91,73,29.99,29.71,29.52,10,8,2,25,14,38,0.37,7,,199